Regional Weather Roundup
Issued by NWS

Home | Current Version | Previous Version | Text Only | Print | Product List | Glossary Off
Versions: 1 2 3 4 5 6 7 8 9 10 11 12 13 14 15 16 17 18 19 20 21 22 23 24 25 26 27 28 29 30 31 32 33 34 35 36 37 38 39 40 41 42 43 44 45 46 47 48 49 50

000
ASUS45 KBOU 302307
RWRCO

WEATHER ROUNDUP FOR COLORADO
NATIONAL WEATHER SERVICE DENVER/BOULDER CO
500 PM MDT WED JUL 30 2014

NOTE: "FAIR" INDICATES FEW OR NO CLOUDS BELOW 12000 FEET WITH NO
SIGNIFICANT WEATHER AND/OR OBSTRUCTIONS TO VISIBILITY.

COZ001>005-013-030-031-310000-
...NORTHWEST COLORADO...

CITY           SKY/WX    TMP DP  RH WIND       PRES   REMARKS
CRAIG          PTSUNNY   56  32  40 NE8       30.27F
HAYDEN         PTSUNNY   61  54  77 S5        30.31R THUNDER
MEEKER         CLOUDY    74  51  44 N9        30.25F
MOUNT WERNER   NOT AVBL
STEAMBOAT SPGS PTSUNNY   66  54  65 S5        30.30F
WALDEN         CLOUDY    59  46  63 NE3       30.41F
$$

COZ006>008-011-310000-
...WEST CENTRAL VALLEYS...

CITY           SKY/WX    TMP DP  RH WIND       PRES   REMARKS
GRAND JUNCTION PTSUNNY   81  53  37 NW14      30.13F
MONTROSE       MOSUNNY   81  53  37 VRB7      30.19F
EAGLE          PTSUNNY   70  57  64 N9        30.29R
RIFLE          LGT RAIN  74  58  57 N8        30.20S
DELTA          MOSUNNY   86  49  27 W14       30.14F
NUCLA          MOSUNNY   81  46  30 W3        30.23F
$$

COZ017>023-064>068-310000-
...SOUTHWEST COLORADO...

CITY           SKY/WX    TMP DP  RH WIND       PRES   REMARKS
DURANGO        MOSUNNY   85  44  23 W16       30.20F
CORTEZ         PTSUNNY   87  46  24 W12G18    30.17F
PAGOSA SPRINGS PTSUNNY   79  41  26 W10G21    30.28F
TELLURIDE      NOT AVBL
WOLF CREEK PAS NOT AVBL
$$

COZ009-010-012-014-032>034-037-058>063-310000-
...CENTRAL COLORADO...

CITY           SKY/WX    TMP DP  RH WIND       PRES   REMARKS
ASPEN          MOSUNNY   69  46  43 CALM      30.32F
BUENA VISTA    CLOUDY    65  51  61 SE9       30.38R
COPPER MTN     HVY RAIN  46  43  87 W8G16     30.64R VSB 1/4
BERTHOUD PASS  FOG       37  36  93 E14       30.69S VSB<1/4
COTTONWOOD PAS CLOUDY    59  48  67 SE9       30.50R
GUNNISON       MOSUNNY   75  46  35 NW6       30.31F
KREMMLING      CLOUDY    59  54  82 S5        30.38R
LEADVILLE      PTSUNNY   55  49  80 S6        30.48S
MONARCH PASS   FOG       46  45  93 NE15      30.72S VSB<1/4
SALIDA         PTSUNNY   67  53  61 E12G26    30.41F
SUNLIGHT       CLOUDY    57  50  77 CALM      30.57S
WILKERSON PASS LGT RAIN  45  43  93 NE7       30.63S VSB 1/4
$$

COZ069>075-310000-
...SAN LUIS VALLEY/SANGRE DE CRISTO MOUNTAINS...

CITY           SKY/WX    TMP DP  RH WIND       PRES   REMARKS
ALAMOSA        CLOUDY    68  52  56 SE13      30.30R
LA VETA PASS   DRZL/FOG  50  46  87 E13       30.54R VSB 1/4
SAGUACHE       PTSUNNY   73  52  46 S12       30.31S
$$

COZ035-036-038>040-310000-
...NORTHERN COLORADO FRONT RANGE...

CITY           SKY/WX    TMP DP  RH WIND       PRES   REMARKS
DENVER INTL AP HVY RAIN  59  57  93 E10       30.34S VSB 1
DMNS CITY PARK   N/A     59  57  96 E5        30.34S
AURORA         NOT AVBL
FRONT RANGE AP RAIN      63  59  88 E10       30.35F
ERIE MUNI ARPT LGT RAIN  60  59  96 S5        30.33F
BOULDER MUN AP DRIZZLE   59  59 100 NW3       30.35S
CENTENNIAL     LGT RAIN  58  56  93 SE7       30.36S FOG
BROOMFIELD     DRIZZLE   59  57  94 NW7       30.36  FOG
FORT COLLINS   CLOUDY    61  57  88 NE3       30.36S
LONGMONT       LGT RAIN  61  58  90 NE3       30.36S
$$

COZ041-046-047-076>085-087-088-310000-
...PIKES PEAK/PALMER DIVIDE AND SOUTHERN FOOTHILLS...

CITY           SKY/WX    TMP DP  RH WIND       PRES   REMARKS
COLO. SPRINGS  LGT RAIN  58  56  93 S9        30.37S FOG
A. F. ACADEMY  LGT RAIN  57  57 100 SE7       30.37F FOG
ELLICOTT       CLOUDY    61  54  77 E14       30.35S
FALCON         RAIN      56  54  92 E8        30.40S
FORT CARSON    LGT RAIN  57  57 100 SE5       30.35S FOG
LIMON          CLOUDY    61  53  75 E8        30.34F
MONUMENT HILL  HVY RAIN  54  52  94 E8        30.39S
TRINIDAD       CLOUDY    63  56  78 E12       30.32R
$$

COZ042>045-048>051-090-091-310000-
...NORTHEAST COLORADO...

CITY           SKY/WX    TMP DP  RH WIND       PRES   REMARKS
GREELEY ARPT   NOT AVBL
AKRON          CLOUDY    63  55  75 SW10      30.31F
BURLINGTON     CLOUDY    68  52  56 E5        30.28F
WRAY             N/A     71  56  59 SW9       30.25F
STERLING       CLOUDY    68  59  73 SW8       30.28S
HOLYOKE        PTSUNNY   73  59  60 W8        30.25S
FORT MORGAN    CLOUDY    61  57  87 S7        30.32F
$$

COZ086-089-092>099-310000-
...SOUTHEAST COLORADO...

CITY           SKY/WX    TMP DP  RH WIND       PRES   REMARKS
PUEBLO         CLOUDY    65  59  81 E15       30.28F
LA JUNTA       MOSUNNY   68  59  73 SE14      30.26F
LAMAR          CLOUDY    68  58  70 E9        30.24S
SPRINGFIELD      N/A     63  59  87 NE13      30.26S
$$



USA.gov is the U.S. government's official web portal to all federal, state and local government web resources and services.